Location: Roanoke
(37.2710°N, 79.9420°W)
Time: 23:25:58
(UTC-05:00)

Tiros 1 despin weight - All Passes

Search period start: 16 November 2019 00:00
Search period end: 26 November 2019 00:00
Orbit: 594 x 642 km, 48.2° (Epoch: 16 November)

Date Brightness Start Highest point End Pass type
(mag) Time Alt. Az. Time Alt. Az. Time Alt. Az.
16 Nov - 13:14:45 10° SSW 13:18:42 34° SE 13:22:42 10° ENE daylight
16 Nov - 14:55:54 10° WSW 15:00:09 46° NNW 15:04:28 10° NE daylight
16 Nov - 16:39:06 10° WNW 16:42:31 21° N 16:45:58 10° NE daylight
16 Nov - 18:21:32 10° NW 18:25:12 24° NNE 18:28:54 10° ENE visible
16 Nov - 20:02:50 10° NW 20:07:21 68° NNE 20:11:55 10° ESE visible
16 Nov - 21:45:05 10° W 21:48:36 22° SW 21:52:09 10° S night (unlit)
17 Nov - 11:53:52 10° SE 11:54:16 10° SE 11:54:39 10° ESE daylight
17 Nov - 13:30:46 10° SW 13:35:08 69° SE 13:39:33 10° ENE daylight
17 Nov - 15:13:02 10° W 15:16:58 30° NNW 15:20:56 10° NE daylight
17 Nov - 16:56:15 10° NW 16:59:33 20° N 17:02:52 10° NE daylight
17 Nov - 18:38:03 10° NW 18:42:06 32° NNE 18:46:13 10° E visible
17 Nov - 20:19:26 10° WNW 20:23:55 66° SW 20:28:28 10° SE visible
17 Nov - 22:04:22 10° WSW 22:04:50 10° SW 22:05:18 10° SW night (unlit)
18 Nov - 12:07:04 10° S 12:10:29 22° SE 12:13:55 10° E daylight
18 Nov - 13:47:20 10° WSW 13:51:43 63° NNW 13:56:07 10° NE daylight
18 Nov - 15:30:20 10° WNW 15:33:53 23° NNW 15:37:29 10° NE daylight
18 Nov - 17:13:07 10° NW 17:16:34 21° N 17:20:03 10° ENE daylight
18 Nov - 18:54:31 10° NW 18:58:54 49° NNE 19:03:19 10° ESE visible
18 Nov - 20:36:17 10° WNW 20:40:20 33° SW 20:44:27 10° SSE visible
19 Nov - 12:22:38 10° SSW 12:26:50 45° SE 12:31:03 10° ENE daylight
19 Nov - 14:04:19 10° W 14:08:26 38° NNW 14:12:36 10° NE daylight
19 Nov - 15:47:35 10° NW 15:50:54 20° N 15:54:14 10° NE daylight
19 Nov - 17:29:44 10° NW 17:33:32 26° NNE 17:37:22 10° ENE visible
19 Nov - 19:11:01 10° NW 19:15:33 86° NE 19:20:07 10° SE visible
19 Nov - 20:53:50 10° W 20:56:39 16° SW 20:59:27 10° S visible
20 Nov - 10:59:53 10° SSE 11:02:18 14° SE 11:04:42 10° E daylight
20 Nov - 12:38:55 10° SW 12:43:18 89° WNW 12:47:45 10° NE daylight
20 Nov - 14:21:33 10° WNW 14:25:17 26° NNW 14:29:04 10° NE daylight
20 Nov - 16:04:37 10° NW 16:07:56 20° N 16:11:16 10° NE daylight
20 Nov - 17:46:13 10° NW 17:50:24 37° NNE 17:54:37 10° E visible
20 Nov - 19:27:42 10° WNW 19:32:03 49° SW 19:36:27 10° SE visible
21 Nov - 11:14:43 10° SSW 11:18:34 30° SE 11:22:25 10° ENE daylight
21 Nov - 12:55:40 10° WSW 12:59:57 50° NNW 13:04:16 10° NE daylight
21 Nov - 14:38:50 10° WNW 14:42:15 21° N 14:45:41 10° NE daylight
21 Nov - 16:21:22 10° NW 16:24:56 23° NNE 16:28:32 10° ENE daylight
21 Nov - 18:02:41 10° NW 18:07:07 61° NNE 18:11:37 10° ESE visible
21 Nov - 19:44:46 10° W 19:48:25 24° SW 19:52:06 10° S visible
22 Nov - 11:30:38 10° SW 11:34:58 62° SE 11:39:20 10° ENE daylight
22 Nov - 13:12:46 10° W 13:16:44 32° NNW 13:20:44 10° NE daylight
22 Nov - 14:56:01 10° NW 14:59:17 20° N 15:02:33 10° NE daylight
22 Nov - 16:37:55 10° NW 16:41:51 30° NNE 16:45:49 10° E daylight
22 Nov - 18:19:14 10° WNW 18:23:42 73° SW 18:28:14 10° SE visible
22 Nov - 20:03:12 10° WSW 20:04:40 11° SW 20:06:08 10° SSW visible
23 Nov - 10:07:07 10° S 10:10:20 20° SE 10:13:33 10° E daylight
23 Nov - 11:47:08 10° WSW 11:51:31 70° NNW 11:55:55 10° NE daylight
23 Nov - 13:30:03 10° WNW 13:33:38 24° NNW 13:37:14 10° NE daylight
23 Nov - 15:12:56 10° NW 15:16:18 21° N 15:19:41 10° ENE daylight
23 Nov - 16:54:23 10° NW 16:58:40 45° NNE 17:02:59 10° E daylight
23 Nov - 18:36:03 10° WNW 18:40:09 36° SW 18:44:18 10° SSE visible
24 Nov - 10:22:32 10° SSW 10:26:40 41° SE 10:30:49 10° ENE daylight
24 Nov - 12:04:03 10° W 12:08:13 40° NNW 12:12:24 10° NE daylight
24 Nov - 13:47:19 10° NW 13:50:38 20° N 13:53:57 10° NE daylight
24 Nov - 15:29:35 10° NW 15:33:17 25° NNE 15:37:00 10° ENE daylight
24 Nov - 17:10:52 10° NW 17:15:20 79° NE 17:19:51 10° ESE daylight
24 Nov - 18:53:26 10° W 18:56:28 18° SW 18:59:31 10° S visible
25 Nov - 09:00:09 10° SSE 09:02:09 13° SE 09:04:08 10° ESE daylight
25 Nov - 10:38:43 10° SW 10:43:08 83° SE 10:47:33 10° ENE daylight
25 Nov - 12:21:15 10° WNW 12:25:03 27° NNW 12:28:52 10° NE daylight
25 Nov - 14:04:24 10° NW 14:07:40 20° N 14:10:55 10° NE daylight
25 Nov - 15:46:05 10° NW 15:50:09 35° NNE 15:54:16 10° E daylight
25 Nov - 17:27:30 10° WNW 17:31:51 54° SW 17:36:15 10° SE visible
